This demonstration page uses our WeatherBlox Daily Observations layout. Learn more.

38.89511, -77.03637

Hourly Observations for June 11, 2015

Temp ( °F °C ) Dew Point ( °F °C ) Humidity (%) Winds ( mph kmh ) Pressure ( in mb ) Visibility ( mi km ) Precip ( " mm )
12:52 am 00:52 Clear 74 23.3 67 19.4 79 79 S 9 15 29.9 1013 9 14.48406 0 0
1:52 am 01:52 Clear 73 22.8 66 18.9 79 79 S 7 11 29.91 1013 9 14.48406 0 0
2:52 am 02:52 Clear 72 22.2 65 18.3 79 79 SSW 6 9 29.92 1013 8 12.87472 0 0
3:52 am 03:52 Clear 72 22.2 65 18.3 79 79 SSW 5 7 29.91 1013 9 14.48406 0 0
4:52 am 04:52 Clear 72 22.2 64 17.8 76 76 SSW 3 6 29.91 1013 8 12.87472 0 0
5:52 am 05:52 Partly Cloudy 71 21.7 65 18.3 81 81 SSW 5 7 29.93 1013 8 12.87472 0 0
6:52 am 06:52 Mostly Cloudy with Haze 73 22.8 67 19.4 81 81 SSW 8 13 29.94 1014 6 9.65604 0 0
7:52 am 07:52 Mostly Cloudy with Haze 75 23.9 67 19.4 76 76 S 3 6 29.96 1015 6 9.65604 0 0
8:52 am 08:52 Mostly Cloudy with Haze 77 25 68 20 74 74 S 6 9 29.97 1015 6 9.65604 0 0
9:52 am 09:52 Cloudy 81 27.2 70 21.1 69 69 S 8 13 29.97 1015 7 11.26538 0 0
10:52 am 10:52 Cloudy 83 28.3 72 22.2 70 70 S 10 17 29.97 1015 7 11.26538 0 0
11:52 am 11:52 Cloudy 86 30 72 22.2 63 63 S 10 17 29.97 1015 8 12.87472 0 0
12:52 pm 12:52 Cloudy 88 31.1 72 22.2 59 59 S 9 15 29.95 1014 8 12.87472 0 0
1:52 pm 13:52 Cloudy 91 32.8 68 20 47 47 SSE 10 17 29.94 1014 7 11.26538 0 0
2:52 pm 14:52 Mostly Cloudy 92 33.3 68 20 46 46 S 10 17 29.93 1014 8 12.87472 0 0
3:52 pm 15:52 Mostly Cloudy 91 32.8 72 22.2 54 54 S 10 17 29.92 1013 8 12.87472 0 0
4:52 pm 16:52 Mostly Cloudy 90 32.2 73 22.8 58 58 S 12 19 29.91 1013 8 12.87472 0 0
5:52 pm 17:52 Partly Cloudy 91 32.8 70 21.1 50 50 S 9 15 29.9 1013 9 14.48406 0 0
6:52 pm 18:52 Mostly Cloudy 89 31.7 71 21.7 55 55 S 9 15 29.9 1013 10 16.0934 0 0
7:52 pm 19:52 Mostly Cloudy 87 30.6 73 22.8 63 63 S 8 13 29.92 1013 10 16.0934 0 0
8:52 pm 20:52 Partly Cloudy 86 30 72 22.2 63 63 S 8 13 29.93 1014 10 16.0934 0 0
9:52 pm 21:52 Partly Cloudy 84 28.9 74 23.3 72 72 S 8 13 29.94 1014 10 16.0934 0 0
10:52 pm 22:52 Mostly Clear 83 28.3 74 23.3 74 74 S 8 13 29.96 1014 10 16.0934 0 0
11:52 pm 23:52 Partly Cloudy 82 27.8 73 22.8 74 74 S 8 13 29.95 1014 10 16.0934 0 0

Powered by AerisWeather